Miscellaneous Local Product
Issued by NWS North Platte, NE

Home | Current Version | Previous Version | Text Only | Print | Product List | Glossary On
Versions: 1 2 3 4 5 6 7 8 9 10 11 12 13 14 15 16 17 18 19 20 21 22 23 24 25 26 27 28 29 30 31 32 33 34 35 36 37 38 39 40 41 42 43 44 45 46 47 48 49 50
000
AXUS43 KLBF 260610
MISLBF


WESTERN AND NORTH CENTRAL NEBRASKA HOURLY WEATHER ROUNDUP
NATIONAL WEATHER SERVICE NORTH PLATTE NE
100 AM CDT WED JUL 26 2017

NOTE: "FAIR" INDICATES FEW OR NO CLOUDS BELOW 12,000 FEET WITH NO
SIGNIFICANT WEATHER AND/OR OBSTRUCTIONS TO VISIBILITY.

NOTE: STATIONS NOT REPORTING VARIABLES SUCH AS SKY/WEATHER OR
PRESSURE ARE PROVIDED BY RAWS AND APRS NETWORKS AND ARE NOT UNDER
NATIONAL WEATHER SERVICE QUALITY CONTROL.

...OBSERVATIONS IN AND NEAR THE EASTERN PANHANDLE OF NEBRASKA...

CITY           SKY/WX    TMP DP  RH WIND       PRES   REMARKS
PINE RIDGE     CLOUDY    75  64  68 NE9       30.08R
GORDON         CLOUDY    71  67  85 NE13      30.07R
CHADRON        CLOUDY    76  56  49 NE14      30.07R
ALLIANCE       CLOUDY    70  64  81 N21G26    30.06R
SIDNEY         CLOUDY    74  60  61 N16       30.05R
CRESCENT LAKE    N/A     71  61  70 NE13        N/A
$$

...OBSERVATIONS IN NORTHERN NEBRASKA AND FAR SOUTHERN SOUTH DAKOTA...

CITY           SKY/WX    TMP DP  RH WIND       PRES   REMARKS
WINNER         FAIR      72  69  90 E8        29.97F
VALENTINE      CLOUDY    72  66  81 SE6       30.02R
THEDFORD       LGT RAIN  68  67  96 NE13G18   29.99F
AINSWORTH      RAIN      66  66  99 SE13      30.02R
O`NEILL        LGT RAIN  69  69 100 NE13      30.01F
ORD            CLOUDY    72  65  78 NE22G30   29.95R
BROKEN BOW     CLOUDY    79  66  64 NW17      29.96R
VALENTINE NWR    N/A     67  65  95 S7G16       N/A
HALSEY           N/A     68  67  96 W9G21       N/A
BUTTE            N/A     69  67  95 E12         N/A
CHAMBERS         N/A     68  67  96 E8          N/A
EWING            N/A     70  68  95 N5G13       N/A
$$

...OBSERVATIONS IN SOUTHWEST NEBRASKA AND FAR NORTHEAST COLORADO...

CITY           SKY/WX    TMP DP  RH WIND       PRES   REMARKS
HOLYOKE        FAIR      72  64  78 SW8       29.97F
IMPERIAL       CLOUDY    73  61  65 W9        29.93F
OGALLALA       CLOUDY    80  60  49 E6        29.94R
NORTH PLATTE   CLOUDY    76  70  82 N8        29.93S
MCCOOK         CLOUDY    81  68  64 E6        29.90F
LEXINGTON      CLOUDY    82  68  60 SW24G33   29.98R THUNDER
STAPLETON        N/A     69  66  91 NE3G12      N/A
GOTHENBURG       N/A     86  63  45 S6          N/A
CALLAWAY         N/A     82  71  69 S12         N/A
$$

...OBSERVATIONS IN CENTRAL LINCOLN COUNTY AREA...

CITY           SKY/WX    TMP DP  RH WIND       PRES   REMARKS
N.P. AIRPORT   CLOUDY    76  70  82 N8        29.93S
N.P. DOWNTOWN    N/A     77  69  75 CALM        N/A
N.P. SOUTHEAST   N/A     77  69  75 CALM        N/A
N.P. HILLCREST   N/A     74  67  79 E8          N/A
$$

...SOME OBSERVATIONS FROM AROUND THE REGION...

CITY           SKY/WX    TMP DP  RH WIND       PRES   REMARKS
DENVER         CLOUDY    70  57  63 NW8       30.19R
LIMON          CLOUDY    66  61  84 NW9       30.17R
ASPEN          CLOUDY    56  54  93 CALM      30.36S
LARAMIE        CLOUDY    58  56  93 S3        30.33R
CASPER         CLOUDY    62  56  80 NE6       30.24F
CHEYENNE       CLOUDY    63  54  72 N12       30.25R
SCOTTSBLUFF    PTCLDY    76  60  57 N14G23    30.07R
GRAND ISLAND   CLOUDY    80  69  69 SE17G25   29.91F
OMAHA          CLOUDY    83  75  77 SE15      29.97S HX  90
SIOUX FALLS    LGT RAIN  71  71 100 NE5       30.01F
PIERRE         CLOUDY    75  67  76 NE13      29.96F
RAPID CITY     CLOUDY    72  54  53 N13       30.11S
BISMARCK       CLOUDY    68  54  60 E6        30.06R
KANSAS CITY    PTCLDY    81  74  79 SE9       30.04S
HILL CITY      CLOUDY    87  65  47 S20G29    29.89F THUNDER
WICHITA        CLOUDY    83  71  67 S14       30.00R
DODGE CITY     MOCLDY    85  63  47 S21G29    29.99S
OKLAHOMA CITY  PTCLDY    80  71  74 S12       30.03S
DALLAS         CLEAR     87  71  58 S15       30.03S HX  93
AMARILLO       PTCLDY    82  61  48 S20       30.10R
$$




USA.gov is the U.S. government's official web portal to all federal, state and local government web resources and services.